Regional Weather Roundup
Issued by NWS

Home | Current Version | Previous Version | Text Only | Print | Product List | Glossary Off
Versions: 1 2 3 4 5 6 7 8 9 10 11 12 13 14 15 16 17 18 19 20 21 22 23 24 25 26 27

000
ASUS43 KDMX 240707
RWRIA

WEATHER ROUNDUP FOR IOWA
NATIONAL WEATHER SERVICE DES MOINES IA
200 AM CDT FRI OCT 24 2014

NOTE: "FAIR" INDICATES FEW OR NO CLOUDS BELOW 12,000 FEET WITH NO
SIGNIFICANT WEATHER AND/OR OBSTRUCTIONS TO VISIBILITY.

* - THESE STATIONS ARE NOT NWS STATIONS...THUS NOT UNDER NWS
QUALITY CONTROL.  THEY ALSO DO NOT REPORT WEATHER SUCH
AS PRECIPITATION OR FOG.

IAZ001>003-012>014-020>022-031>034-043>046-240800-
   NORTHWEST IOWA

CITY           SKY/WX    TMP DP  RH WIND       PRES   REMARKS
CARROLL *      CLEAR     46  43  87 S5        30.00S
CHEROKEE *     PTCLDY    46  46 100 CALM      29.96F
DENISON *      PTCLDY    54  48  82 S8        29.97F
LE MARS *      CLEAR     55  48  76 S9        29.94S
ORANGE CITY *  CLEAR     54  46  76 S7        29.94S
SHELDON *      CLEAR     48  45  87 SE3       29.93F
SIOUX CITY     PTCLDY    50  47  89 SE7       29.94F
SPENCER        MOCLDY    47  42  83 SE7       29.96F
STORM LAKE *   CLEAR     48  45  87 S9        29.98S
$$

IAZ055>058-069>071-079>083-090>094-240800-
   SOUTHWEST IOWA

CITY           SKY/WX    TMP DP  RH WIND       PRES   REMARKS
ATLANTIC *     CLEAR     48  46  93 SW5       30.01F
AUDUBON *      CLEAR     45  39  81 CALM      30.02S
CLARINDA *     FOG       57  57 100 S5        30.04F VSB 0
COUNCIL BLFS * CLEAR     54  54 100 S6        29.99S
CRESTON *      FOG       57  57 100 SW8       30.04S VSB 1/4
HARLAN  *      CLEAR     48  48 100 CALM      30.04S
LAMONI         FOG       58  57  97 SW9       30.04F VSB 1/4
RED OAK *      MOCLDY    50  48  93 S5        30.02S
SHENANDOAH *     N/A     55  55 100 CALM      30.03S FOG
$$

IAZ047>049-059>061-072>074-084-240800-
   CENTRAL IOWA

CITY           SKY/WX    TMP DP  RH WIND       PRES   REMARKS
AMES           FOG       47  46  97 CALM      30.02S VSB 1/4
ANKENY *       FOG       50  50 100 CALM      30.02S VSB 0
CHARITON *     FOG       57  57 100 SW7       30.04F VSB 0
DES MOINES     FOG       52  51  97 S5        30.03S VSB 1/8
GRINNELL*      FOG       52  50  93 S3        30.04S VSB 1/4
KNOXVILLE *    FOG       54  54 100 SW8       30.02F VSB 0
MARSHALLTOWN   FOG       42  42 100 E5        30.02S VSB 1/4
PELLA *        FOG       54  54 100 SW5       30.05S VSB<1/4
PERRY *          N/A     45  45 100 S3        30.02R
$$

IAZ004>006-015-016-023>025-035-036-240800-
   NORTH CENTRAL IOWA

CITY           SKY/WX    TMP DP  RH WIND       PRES   REMARKS
ALGONA *       CLEAR     50  45  81 S10       29.99F
CLARION *      CLEAR     50  50 100 S7        30.01S FOG
ESTHERVILLE    PTCLDY    45  41  86 S8        29.96F
FORT DODGE *   PTCLDY    48  43  81 SE3       30.01S
FOREST CITY *  CLEAR     39  39 100 CALM      30.01S
IOWA FALLS *   FOG       48  48 100 CALM      30.04R VSB 1/4
$$

IAZ007>011-017>019-026>030-037>042-050>054-066-240800-
   NORTHEAST IOWA

CITY           SKY/WX    TMP DP  RH WIND       PRES   REMARKS
CEDAR RAPIDS   FOG       44  44 100 CALM      30.04S VSB<1/4
CHARLES CITY * FOG       48  48 100 SE3       30.03S VSB 0
CLINTON *        N/A     41  39  93 CALM      30.07R VSB<1/4
DECORAH *      FOG       50  50 100 CALM      30.03R VSB 0
DUBUQUE        CLOUDY    50  49  96 NW6       30.05S
MONTICELLO *   FOG       43  43 100 CALM      30.04S VSB 0
OELWEIN *      FOG       48  48 100 SE6       30.04S VSB 0
$$

IAZ064-065-067-068-078-240800-
   EAST CENTRAL IOWA

CITY           SKY/WX    TMP DP  RH WIND       PRES   REMARKS
DAVENPORT      FOG       44  43  96 CALM      30.05S VSB 1/4
IOWA CITY      FOG       46  46 100 W5        30.06S VSB 1/4
MT. PLEASANT * DRZL/FOG  50  50 100 CALM      30.06S VSB<1/4
MUSCATINE *    FOG       43  41  93 CALM      30.05S VSB 1/4
QUAD CITIES    FOG       44  42  93 CALM      30.05S VSB 3/4
$$

IAZ062-063-075>077-085>089-095>099-240800-
   SOUTHEAST IOWA

CITY           SKY/WX    TMP DP  RH WIND       PRES   REMARKS
BURLINGTON     CLOUDY    54  52  93 SW5       30.05S
FAIRFIELD *    CLOUDY    46  46 100 SW5       30.05F
FORT MADISON * MOCLDY    54  54 100 S3        30.06S
KEOKUK *       CLOUDY    54  54 100 SW6       30.06R FOG
OSKALOOSA *    HVY RAIN  45  45 100 S3        30.05S VSB<1/4
CENTERVILLE *  FOG       55  55 100 SW5       30.07S VSB 1/2
OTTUMWA        FOG       47  46  97 S3        30.04F VSB<1/4
WASHINGTON *   FOG       48  48 100 W6        30.05S VSB 0
$$

ABBREVIATIONS USED IN REMARKS
   TC - TEMPERATURES IN CELSIUS
  WCI - WIND CHILL INDEX
   HX - HEAT INDEX
  VSB - VISIBILITY
$$




USA.gov is the U.S. government's official web portal to all federal, state and local government web resources and services.